[[{"header":{"parameterUnit":"m.s-1","parameterCategory":1,"la1":30.2991,"la2":30.254,"lo1":-89.0895,"lo2":-89.0444,"dy":0.0017,"dx":0.0017,"nx":28,"ny":28,"refTime":"2024-05-28T09:00:00:Z","depth":0,"parameterNumber":2,"parameterNumberName":"U-component_of_WINDS"},"data":[0,0,0,0,0,0,0,0,0,0,0,0,0,0,0,0,0,0,0,0,0,0,0,0,0,0,0,0,0,0,0,0,0,0,0,0,0,0,0,0,0,0,0,0,0,0,0,0,0,0,0,0,0,0,0,0,0,0,1.7314,1.7315,0,1.7391,1.7392,1.7393,1.7362,1.736,1.7358,1.7356,1.7436,1.744,1.7443,0,0,0,0,0,0,0,0,0,0,0,0,0,1.7141,1.7144,1.7314,1.7315,1.7316,1.7391,1.7392,1.7393,1.7362,1.736,1.7358,1.7356,1.7435,1.7439,1.7444,0,0,0,0,0,0,0,0,0,0,0,0,0,1.7217,1.7145,1.7314,1.7309,1.731,1.7391,1.7392,1.7393,1.7363,1.736,1.7357,1.7355,1.7433,1.7439,1.7444,1.7534,0,0,1.7462,1.7464,0,0,0,0,0,0,0,0,1.7213,1.7223,1.7309,1.731,1.731,1.7364,1.736,1.7441,1.7363,1.7343,1.7356,1.7353,1.7414,1.7421,1.7442,1.7538,1.7541,1.7462,1.7466,1.7468,1.747,0,0,0,0,0,0,0,1.7207,1.722,1.7344,1.731,1.7311,1.7304,1.7312,1.7375,1.7393,1.7344,1.7342,1.7352,1.7414,1.7436,1.7443,1.7542,1.7462,1.7467,1.7471,1.7473,1.7718,1.7721,0,0,0,0,0,0,1.7202,1.7216,1.7342,1.7347,1.7254,1.7309,1.7318,1.735,1.7392,1.7396,1.7354,1.735,1.7428,1.7437,1.7446,1.7555,1.7468,1.7473,1.7477,1.7715,1.7719,1.7722,0,0,0,0,0,0,1.7198,1.7213,1.7339,1.7281,1.7296,1.7315,1.7351,1.7353,1.7375,1.7399,1.7402,1.7373,1.7426,1.7438,1.7513,1.7558,1.7476,1.7481,1.7712,1.7716,1.7721,1.7774,0,0,0,0,0,0,1.7193,1.7212,1.7246,1.7282,1.7299,1.7404,1.7354,1.7356,1.7385,1.738,1.7418,1.7422,1.7425,1.7505,1.7519,1.7564,1.7486,1.7708,1.7714,1.7719,1.7768,1.7779,1.7789,0,0,0,0,0,1.7187,1.7258,1.7248,1.7263,1.7342,1.7407,1.7417,1.7418,1.7388,1.7423,1.7439,1.7421,1.755,1.7512,1.7528,1.7576,1.7705,1.7712,1.7719,1.7763,1.7777,1.7789,0,0,0,0,0,0,1.7226,1.7262,1.7252,1.7335,1.7368,1.7401,1.7445,1.7433,1.7475,1.7469,1.7469,1.7478,1.7556,1.7573,1.753,1.7666,1.7623,1.7634,1.7652,1.7665,1.7676,1.767,1.749,0,0,0,0,0,1.7245,1.7294,1.7323,1.7394,1.7411,1.7425,1.7453,1.7452,1.7486,1.75,1.7521,1.7555,1.7604,1.7635,1.7681,1.7771,1.7779,1.7811,1.7822,1.7831,1.784,1.789,1.7905,1.7745,1.7745,1.7745,0,0,1.7283,1.7309,1.7339,1.7402,1.7427,1.7479,1.7437,1.7493,1.7531,1.7508,1.758,1.7598,1.7636,1.7719,1.7756,1.7735,1.7886,1.7839,1.7846,1.7851,1.7899,1.7914,1.7927,1.775,1.7749,1.7748,0,0,1.7379,1.7403,1.7466,1.7492,1.7532,1.7541,1.7556,1.7592,1.7602,1.7675,1.7659,1.7705,1.7788,1.7817,1.7842,1.7951,1.7937,1.7966,1.8022,1.8071,1.8084,1.8095,1.8135,1.8149,1.7975,1.7975,1.7976,0,1.7422,1.7499,1.7499,1.7558,1.7586,1.7568,1.7632,1.7658,1.771,1.7731,1.7707,1.7812,1.7836,1.7926,1.7953,1.7974,1.7992,1.7962,1.8082,1.8093,1.8104,1.8142,1.8157,1.7979,1.7978,1.7978,1.7978,0,1.755,1.7604,1.765,1.7701,1.7735,1.7796,1.7806,1.7841,1.7837,1.7849,1.7925,1.7954,1.8006,1.8027,1.8024,1.8118,1.8104,1.8081,1.8038,1.8122,1.8158,1.8173,1.7984,1.7982,1.7981,1.7981,0,0,1.7671,1.7724,1.7741,1.7765,1.7808,1.7849,1.791,1.7961,1.7991,1.8029,1.808,1.8152,1.8132,1.8161,1.8161,1.8204,1.829,1.8176,1.8177,1.8197,1.8397,1.8414,1.8431,1.8281,1.8284,1.8286,1.8394,0,1.7771,1.7878,1.7881,1.7978,1.8029,1.8014,1.8067,1.8099,1.8113,1.8158,1.8173,1.8225,1.8194,1.8211,1.8253,1.8271,1.8331,1.8263,1.833,1.8332,1.8321,1.8449,1.8467,1.8568,1.8408,1.841,1.8412,0,1.7902,1.7944,1.8047,1.8084,1.8105,1.8153,1.8201,1.8244,1.8282,1.8289,1.8322,1.8316,1.8379,1.8335,1.8422,1.8376,1.8404,1.8417,1.8421,1.8427,1.8377,1.846,1.8599,1.8615,1.8434,1.8432,1.8431,0,1.7982,1.8064,1.8136,1.8157,1.8202,1.8236,1.8256,1.8291,1.8322,1.8365,1.8385,1.8435,1.8462,1.8501,1.8509,1.8475,1.8597,1.8553,1.8606,1.8605,1.8631,1.863,1.8778,1.8649,1.8649,1.8649,1.8648,0,1.8093,1.8157,1.8173,1.8217,1.8288,1.8293,1.8363,1.8381,1.8413,1.8461,1.8451,1.8497,1.8504,1.8552,1.8559,1.8632,1.8644,1.8652,1.8653,1.8653,1.8652,1.8671,1.8664,1.8653,1.8652,1.8651,1.865,0,1.8194,1.8207,1.8285,1.8322,1.8333,1.8384,1.8415,1.8459,1.8472,1.8533,1.8548,1.8569,1.8625,1.8637,1.8704,1.8708,1.8795,1.8789,1.8782,1.8782,1.8834,1.8829,1.9,1.9023,1.8878,1.888,1.8881,0,1.8264,1.8313,1.8355,1.8387,1.8409,1.846,1.8493,1.8499,1.8533,1.8581,1.8619,1.8674,1.8718,1.8809,1.883,1.8881,1.8877,1.8933,1.8884,1.8883,1.8879,1.8876,1.8881,1.8942,1.8944,1.8945,1.8946,0,1.8388,1.8392,1.8439,1.8489,1.8528,1.8567,1.8605,1.8632,1.8644,1.8683,1.874,1.8775,1.8843,1.8899,1.895,1.8972,1.8962,1.8962,1.8977,1.8977,1.8972,1.8976,1.8808,1.8958,1.8956,1.8956,1.8955,1.8955,1.8476,1.8519,1.8556,1.8609,1.8638,1.8674,1.8717,1.8736,1.8784,1.884,1.8842,1.8905,1.8943,1.9011,1.9036,1.9086,1.9069,1.909,1.9096,1.9101,1.9106,1.8964,1.9096,1.9095,1.9095,1.9095,1.9095,0,1.86,1.8623,1.8672,1.8725,1.8768,1.8755,1.8796,1.8832,1.8888,1.8924,1.8968,1.9035,1.9089,1.9116,1.917,1.9205,1.9202,1.9219,1.9216,1.9222,1.9118,1.91,1.922,1.922,1.922,1.922,1.922,1.922,1.8669,1.8742,1.8751,1.8839,1.8862,1.8924,1.8949,1.8982,1.9011,1.9087,1.9132,1.9149,1.9182,1.9238,1.9287,1.9294,1.9314,1.9334,1.9338,1.9241,1.9229,1.9216,1.9199,1.9338,1.9339,1.9438,1.9438,1.9439]},{"header":{"parameterUnit":"m.s-1","parameterCategory":1,"la1":30.2991,"la2":30.254,"lo1":-89.0895,"lo2":-89.0444,"dy":0.0017,"dx":0.0017,"nx":28,"ny":28,"refTime":"2024-05-28T09:00:00:Z","depth":0,"parameterNumber":3,"parameterNumberName":"V-component_of_WINDS"},"data":[0,0,0,0,0,0,0,0,0,0,0,0,0,0,0,0,0,0,0,0,0,0,0,0,0,0,0,0,0,0,0,0,0,0,0,0,0,0,0,0,0,0,0,0,0,0,0,0,0,0,0,0,0,0,0,0,0,0,-2.4865,-2.4865,0,-2.4843,-2.4843,-2.4842,-2.4796,-2.4795,-2.4794,-2.4793,-2.4772,-2.4772,-2.4772,0,0,0,0,0,0,0,0,0,0,0,0,0,-2.4869,-2.4869,-2.4865,-2.4865,-2.4865,-2.4843,-2.4843,-2.4842,-2.4796,-2.4795,-2.4794,-2.4793,-2.4772,-2.4772,-2.4772,0,0,0,0,0,0,0,0,0,0,0,0,0,-2.4859,-2.4869,-2.4865,-2.4839,-2.4836,-2.4843,-2.4843,-2.4842,-2.4796,-2.4795,-2.4794,-2.4792,-2.4771,-2.4772,-2.4772,-2.4803,0,0,-2.4774,-2.4774,0,0,0,0,0,0,0,0,-2.486,-2.4859,-2.4843,-2.4841,-2.4838,-2.4821,-2.4836,-2.4829,-2.4797,-2.4812,-2.4793,-2.4792,-2.4789,-2.4788,-2.4787,-2.4802,-2.4801,-2.4774,-2.4774,-2.4774,-2.4774,0,0,0,0,0,0,0,-2.4861,-2.486,-2.4856,-2.4843,-2.484,-2.4829,-2.4826,-2.4835,-2.4809,-2.481,-2.4807,-2.4805,-2.4788,-2.4787,-2.4786,-2.4801,-2.4774,-2.4774,-2.4774,-2.4775,-2.4839,-2.4841,0,0,0,0,0,0,-2.4865,-2.4861,-2.4857,-2.4856,-2.4846,-2.483,-2.4827,-2.4828,-2.4808,-2.4804,-2.4806,-2.4803,-2.4787,-2.4786,-2.4785,-2.4819,-2.4774,-2.4775,-2.4775,-2.4838,-2.484,-2.4841,0,0,0,0,0,0,-2.4865,-2.4865,-2.4858,-2.4857,-2.4856,-2.4831,-2.4833,-2.4828,-2.4827,-2.4805,-2.48,-2.481,-2.4786,-2.4785,-2.4799,-2.4818,-2.4775,-2.4775,-2.4836,-2.4839,-2.4841,-2.4888,0,0,0,0,0,0,-2.4866,-2.4866,-2.4877,-2.4858,-2.4856,-2.4872,-2.4834,-2.4829,-2.4828,-2.4823,-2.4807,-2.4803,-2.4784,-2.4798,-2.4799,-2.4818,-2.4776,-2.4834,-2.4837,-2.484,-2.4884,-2.4891,-2.4897,0,0,0,0,0,-2.4866,-2.4891,-2.4877,-2.4877,-2.4869,-2.4873,-2.4872,-2.4849,-2.483,-2.4841,-2.4827,-2.4804,-2.4816,-2.48,-2.4801,-2.482,-2.4833,-2.4837,-2.484,-2.4882,-2.489,-2.4897,0,0,0,0,0,0,-2.4913,-2.4888,-2.4873,-2.4892,-2.4885,-2.4865,-2.4878,-2.4859,-2.4857,-2.4853,-2.4825,-2.4822,-2.4839,-2.4831,-2.4814,-2.4848,-2.4821,-2.4825,-2.4853,-2.486,-2.4867,-2.4868,-2.4776,0,0,0,0,0,-2.4926,-2.493,-2.4909,-2.4928,-2.4925,-2.4903,-2.4903,-2.4886,-2.4878,-2.4874,-2.4861,-2.4854,-2.4856,-2.4858,-2.4859,-2.4884,-2.4879,-2.4897,-2.4903,-2.4909,-2.4912,-2.4924,-2.4931,-2.4852,-2.4852,-2.4852,0,0,-2.4952,-2.4939,-2.4943,-2.4937,-2.493,-2.4935,-2.49,-2.4908,-2.4912,-2.4876,-2.4888,-2.4878,-2.4868,-2.4888,-2.4896,-2.4882,-2.4933,-2.4913,-2.4917,-2.4917,-2.4928,-2.4935,-2.4942,-2.4854,-2.4854,-2.4854,0,0,-2.5002,-2.4993,-2.5008,-2.5001,-2.4989,-2.4974,-2.4978,-2.4961,-2.4953,-2.4965,-2.4938,-2.4943,-2.4947,-2.4941,-2.4938,-2.4987,-2.4966,-2.4988,-2.5021,-2.5033,-2.504,-2.5045,-2.5061,-2.5068,-2.4992,-2.4992,-2.4992,0,-2.5036,-2.5043,-2.5018,-2.5027,-2.5025,-2.4993,-2.5008,-2.5003,-2.4993,-2.4992,-2.4976,-2.4981,-2.4972,-2.4989,-2.5001,-2.5001,-2.5004,-2.4989,-2.5041,-2.5046,-2.505,-2.5066,-2.5072,-2.4995,-2.4994,-2.4994,-2.4994,0,-2.5085,-2.509,-2.5104,-2.5094,-2.5094,-2.5106,-2.5084,-2.5087,-2.507,-2.5057,-2.5069,-2.5058,-2.5055,-2.5058,-2.5043,-2.5074,-2.5065,-2.5046,-2.5017,-2.5061,-2.5075,-2.5081,-2.4998,-2.4997,-2.4997,-2.4996,0,0,-2.5162,-2.5139,-2.5145,-2.514,-2.5125,-2.5129,-2.514,-2.5138,-2.514,-2.5135,-2.5143,-2.5148,-2.513,-2.5127,-2.511,-2.5121,-2.5159,-2.51,-2.5099,-2.511,-2.5192,-2.5206,-2.5213,-2.5146,-2.5147,-2.5148,-2.5192,0,-2.5208,-2.5225,-2.5204,-2.5225,-2.523,-2.5199,-2.5209,-2.5201,-2.519,-2.5192,-2.5179,-2.5182,-2.5159,-2.5157,-2.5166,-2.5153,-2.5175,-2.5149,-2.5153,-2.5153,-2.5155,-2.522,-2.5235,-2.5277,-2.5198,-2.5199,-2.5199,0,-2.5264,-2.526,-2.5282,-2.5266,-2.5267,-2.5276,-2.5272,-2.5275,-2.5266,-2.5256,-2.5254,-2.5234,-2.5244,-2.5218,-2.5231,-2.5214,-2.5214,-2.5208,-2.5209,-2.5207,-2.5178,-2.5219,-2.529,-2.5296,-2.5208,-2.5207,-2.5207,0,-2.5317,-2.5318,-2.5331,-2.5328,-2.531,-2.5317,-2.531,-2.5299,-2.5299,-2.5296,-2.5295,-2.5294,-2.5293,-2.5292,-2.5272,-2.5255,-2.5287,-2.526,-2.528,-2.528,-2.5287,-2.5286,-2.5358,-2.5289,-2.5289,-2.5289,-2.5289,0,-2.537,-2.5384,-2.5355,-2.5363,-2.5378,-2.5354,-2.537,-2.5359,-2.5351,-2.5356,-2.5331,-2.5337,-2.5311,-2.5314,-2.5299,-2.5312,-2.5312,-2.5304,-2.53,-2.5306,-2.5307,-2.5305,-2.5301,-2.5291,-2.529,-2.529,-2.529,0,-2.5431,-2.5412,-2.5424,-2.5406,-2.5402,-2.5414,-2.5399,-2.5406,-2.5392,-2.54,-2.54,-2.538,-2.5382,-2.5363,-2.5362,-2.5352,-2.5371,-2.5362,-2.5374,-2.5371,-2.5391,-2.5389,-2.5463,-2.5471,-2.5399,-2.54,-2.54,0,-2.5465,-2.5476,-2.5459,-2.5461,-2.5455,-2.5458,-2.5457,-2.5435,-2.5435,-2.5426,-2.5434,-2.5434,-2.5433,-2.5438,-2.5423,-2.5423,-2.5413,-2.5439,-2.5412,-2.5418,-2.5412,-2.5411,-2.5412,-2.5444,-2.5445,-2.5445,-2.5446,0,-2.5528,-2.5518,-2.5518,-2.5515,-2.5515,-2.5512,-2.5507,-2.551,-2.5485,-2.5487,-2.5489,-2.5488,-2.5487,-2.5488,-2.5484,-2.5477,-2.5457,-2.5455,-2.5459,-2.5465,-2.547,-2.5466,-2.5388,-2.5453,-2.5452,-2.5452,-2.5451,-2.5451,-2.5576,-2.5583,-2.5573,-2.5574,-2.5568,-2.5564,-2.5569,-2.5556,-2.5557,-2.5554,-2.5541,-2.5546,-2.5536,-2.5529,-2.5524,-2.5527,-2.5515,-2.5522,-2.5523,-2.5525,-2.5528,-2.5471,-2.5527,-2.5527,-2.5526,-2.5526,-2.5526,0,-2.5636,-2.5628,-2.5629,-2.5623,-2.5624,-2.5605,-2.5599,-2.5601,-2.5605,-2.5598,-2.5598,-2.56,-2.5601,-2.5586,-2.5585,-2.559,-2.5581,-2.559,-2.5589,-2.5588,-2.554,-2.5535,-2.5598,-2.5598,-2.5598,-2.5598,-2.5598,-2.5598,-2.5667,-2.5679,-2.5668,-2.5676,-2.5668,-2.5672,-2.567,-2.5666,-2.566,-2.5664,-2.5664,-2.5654,-2.5644,-2.5642,-2.5642,-2.5638,-2.5638,-2.565,-2.5643,-2.5598,-2.5591,-2.5584,-2.558,-2.5651,-2.5651,-2.569,-2.5691,-2.5691]}]]